Location: Goettingen
(51.5300°N, 9.9433°E)
Time: 17:36:46
(UTC+02:00)

ISS - Pass Details

Date: 28 May 2020
Orbit: 417 x 420 km, 51.6° (Epoch: 26 May)

Event Time Altitude Azimuth Distance (km) Brightness Sun altitude
Rises 23:09:01 0° 283° (WNW) 2,368 0.8 -11.6°
Reaches altitude 10° 23:11:20 10° 270° (W) 1,501 -0.5 -11.8°
Maximum altitude 23:14:10 25° 213° (SSW) 882 -2.4 -12.0°
Enters shadow 23:15:35 19° 175° (S) 1,071 -2.3 -12.1°
